Regional Weather Roundup
Issued by NWS

Home | Current Version | Previous Version | Text Only | Print | Product List | Glossary On
Versions: 1 2 3 4 5 6 7 8 9 10 11 12 13 14 15 16 17 18 19 20 21 22 23 24 25 26 27 28 29 30 31 32 33 34 35 36 37 38 39 40 41 42 43 44 45 46 47 48 49 50
000
ASHW40 PHFO 032012
RWRHI

WEATHER ROUNDUP FOR HAWAII
NATIONAL WEATHER SERVICE HONOLULU HI
1000 AM HST TUE MAY 03 2016

THIS IS AN AUTOMATED REPORT THAT HAS NOT BEEN QUALITY CONTROLLED.

NOTE..."FAIR" INDICATES FEW OR NO CLOUDS BELOW 12,000 FEET WITH NO
SIGNIFICANT WEATHER AND/OR OBSTRUCTIONS TO VISIBILITY.

* - THESE SITES REPORT LIMITED FIELDS

HIZ001>004-032100-
KAUAI-NIIHAU-

CITY           SKY/WX    TMP DP  RH WIND       PRES   REMARKS
LIHUE APT      MOSUNNY   82  68  62 E15       30.18R
PORT ALLEN*      N/A     81 N/A N/A NE16G22     N/A
POIPU*           N/A     79 N/A N/A NE9G18      N/A
PRINCEVILLE*     N/A     77 N/A N/A E10G18      N/A
KOKOLE POINT*  NOT AVBL
MOLOAA DAIRY*    N/A     75  70  83 E7G17       N/A
WAIMEA HTS*    NOT AVBL
PUU OPAE*      NOT AVBL
PUU LUA*       NOT AVBL
MAKAHA RIDGE*  NOT AVBL
$$

HIZ005>011-032100-
OAHU-

CITY           SKY/WX    TMP DP  RH WIND       PRES   REMARKS
HONOLULU       PTSUNNY   81  66  60 NE15      30.14R
KALAELOA       MOSUNNY   80  64  58 NE8       30.15R
KANEOHE MCB    CLOUDY    77  68  73 E17G25    30.14R
WHEELER FIELD  PTSUNNY   73  66  78 NE8       30.15S
BELLOWS*       NOT AVBL
KAHUKU*        NOT AVBL
WHEELER*       NOT AVBL
WAIANAE HARBOR NOT AVBL
DILLINGHAM*      N/A     81  64  57 MISG        N/A
KAHUKU TRN*      N/A     81  75  83 CALM        N/A
KAWAILOA*        N/A     70  64  83 E9G21       N/A
KII*             N/A     73  66  78 E26G32      N/A
MAKUA RANGE*     N/A     81  63  54 E10G21      N/A
OAHU FOREST NW NOT AVBL
SCHOFIELD BRK*   N/A     81  73  78 MISG        N/A
SCHOFIELD S*   NOT AVBL
WAIANAE VLY*   NOT AVBL
KUAOKALA*      NOT AVBL
HONOULIUULI*   NOT AVBL
MOKUOLOE IS*   NOT AVBL
PALEHUA*       NOT AVBL
WAIAWA PHB*    NOT AVBL
$$

HIZ012>013-032100-
MOLOKAI-

CITY           SKY/WX    TMP DP  RH WIND       PRES   REMARKS
MOLOKAI AIRPT  MOSUNNY   76  68  76 NE10G20   30.15S
KALAUPAPA      NOT AVBL
MAKAPULAPAI*   NOT AVBL
MOLOKAI 1*     NOT AVBL
PUU ALII*      NOT AVBL
$$

HIZ016-032100-
KAHOOLAWE-

CITY           SKY/WX    TMP DP  RH WIND       PRES   REMARKS
KAHOOLAWE*     NOT AVBL
HAKIOAWA*      NOT AVBL
HONOKANAIA*      N/A     82  66  59 NE15G24   30.06S
KANELOA*         N/A     77  66  69 E21G32    30.17F
KEALIALALO*    NOT AVBL
LUA MAKIKA*    NOT AVBL
$$

HIZ014>015-032100-
LANAI-

CITY           SKY/WX    TMP DP  RH WIND       PRES   REMARKS
LANAI CITY     CLOUDY    73  62  68 W6        30.18S
LANAI 1*       NOT AVBL
$$

HIZ017>028-032100-
MAUI-

CITY           SKY/WX    TMP DP  RH WIND       PRES   REMARKS
KAHULUI        MOSUNNY   82  67  60 NE23      30.13S
KAPALUA-W MAUI MOSUNNY   81  66  61 NE15G26   30.13
HANA AIRPORT   NOT AVBL
HANA*            N/A     75 N/A N/A S3          N/A
HALEAKALA SUMM   N/A     52  21  30 E13G25      N/A
MAALAEA BAY*   NOT AVBL
HALEAKALA*     NOT AVBL
KAUPO GAP*     NOT AVBL
KULA 1*          N/A     62  46  56 NW3         N/A
$$

HIZ023>026-032100-
BIG ISLAND OF HAWAII COAST AND LOWER SLOPES-

CITY           SKY/WX    TMP DP  RH WIND       PRES   REMARKS
KAILUA KONA    SUNNY     82  65  56 SW9       30.09R
HILO           MOSUNNY   80  65  59 VRB6      30.15R
HONOKAA*         N/A     77 N/A N/A VRB1        N/A
KAWAIHAE MWT*    N/A     82 N/A N/A W8G14       N/A
KAWAIHAE*      NOT AVBL
SOUTH POINT*     N/A     79 N/A N/A N20G31      N/A
UPOLU AIRPORT*   N/A    N/A N/A N/A NE18G26     N/A
KAMUELA*       CLEAR     73  57  56 NE16G30   30.19S
HAKALAU*         N/A     63  37  38 E3          N/A
KALOKO-HONOKO* NOT AVBL
PALI 2*          N/A     75  52  43 SW17G26     N/A
KEALAKOMO*       N/A     84  59  42 NE16G26     N/A
KAUPULEHU*     NOT AVBL
KAPAPALA*        N/A     83  49  30 E5G15       N/A
LOWER KAHUKU*  NOT AVBL
PUHE CS*       NOT AVBL
PUHO CS*       NOT AVBL
PTA KEAMUKU*     N/A     73  52  46 CALM        N/A
WAIKOLOA*      NOT AVBL
$$

HIZ027>028-032100-
BIG ISLAND OF HAWAII INTERIOR AND SUMMMITS-

CITY           SKY/WX    TMP DP  RH WIND       PRES   REMARKS
BRADSHAW FIELD SUNNY     67  40  37 S13G18    30.40R
MK VISITOR CEN   N/A     61  21  21 S3          N/A
MAUNA KEA*       N/A     46   3  17 SE7         N/A
MAUNA LOA*       N/A    N/A N/A N/A MISG        N/A
MAUNA LOA 1*   NOT AVBL
PTA KIPUKA*      N/A     70  46  43 W6G12       N/A
PTA RANGE 17*    N/A    N/A N/A N/A NW3G14      N/A
PTA WEST*        N/A     70  54  56 NW9G15      N/A
NENE CABIN*    NOT AVBL
AHUMOA*        NOT AVBL
PTA PORTABLE*  NOT AVBL
PUU MALI*        N/A    N/A N/A N/A E23G32      N/A
$$

HIC003-032100-
NORTHWEST ISLANDS-

CITY           SKY/WX    TMP DP  RH WIND       PRES   REMARKS
MIDWAY ISLAND  SUNNY     75  72  88 S8        30.18S
MIDWAY NOS*    NOT AVBL
FRENCH FRIGATE NOT AVBL
$$

PHZ110>124-180-032100-
BUOY REPORTS

STATION/POSITION TIME  TEMP    WIND        PRES    WAVE   SWELL
                       AIR SEA DIR/SP/G            HT/PER HT/DIR
                 (UTC) (F)     (DEG/KT/KT) (MB)    (FT/S) (FT/D)
BUOY 51001       1900   77 78   70/ 14/ 17 1020.0R
BUOY 51101       1950   75 75   60/ 17/ 21 1022.3R   7/ 9   3/ 70
BUOY 51100       NOT AVBL
BUOY 51002       1950   77 78   80/ 16/ 19 1018.5R   8/ 8   5/100
BUOY 51003       1950   77 78   70/ 14/ 17 1019.5R   7/ 7   5/ 60
BUOY 51004       1950   80 79   80/ 16/ 19 1019.0R   7/11   3/340
BARBERS PT BUOY  NOT AVBL
WAIMEA BAY BUOY  1904      78                N/A     5/ 8   2
KAILUA BAY BUOY  1911      78                N/A     6/ 8   2/ 20
LANAI BUOY       1915      78                N/A     3/14   2/200
BARBERS PT 2     1903      79                N/A     4/14   2/190
PAUWELA MAUI     1909      77                N/A     6/ 8   2/360
HILO             1912      78                N/A     6/ 8   2/360
KANEOHE BAY BUOY 1906      78                N/A     6/ 8   2/360
HANALEI KAUAI    NOT AVBL
KAHULUI HARBOR   1900   76 77   40/ 15/ 19 1020.1F
HONOLULU HARBOR  1900   77 78   60/  5/ 11 1021.1R
KILO NALU        NOT AVBL
HILO HARBOR      1900   76 76  330/  4/  4 1020.4R
MOKUOLOE         1900   75 78   70/ 12/ 17 1021.2R
NAWILIWILI       1900   76 80   60/ 13/ 17 1021.3R
WHOTS BUOY       NOT AVBL
BUOY 51028       NOT AVBL
$$

......................KEY........................................
  SKY/WX - SKY CONDITIONS/PRESENT WEATHER
  TMP    - TEMPERATURE IN FAHRENHEIT
  DWPT   - DEWPOINT IN FAHRENHEIT
  RH     - RELATIVE HUMIDITY IN PERCENT
  WIND   - DIRECTION AND SPEED /MPH FOR ISLANDS...KTS FOR BUOYS/
  PRES   - MEAN SEA LEVEL PRESSURE IN INCHES OF HG
  VSB    - VISIBILITY IN MILES
  HX     - HEAT INDEX
  WCI    - WIND CHILL INDEX
  VRB    - VARIABLE WIND DIRECTION
  N/A    - NOT AVAILABLE



USA.gov is the U.S. government's official web portal to all federal, state and local government web resources and services.